Weather Roundup
Issued by NWS

Home | Current Version | Previous Version | Graphics & Text | Print | Product List | Glossary Off
Versions: 1 2 3 4 5 6 7 8 9 10 11 12 13 14 15 16 17 18 19 20 21 22 23 24 25 26 27 28 29 30 31 32 33 34 35 36 37 38 39 40 41 42 43 44 45 46 47 48 49 50

000
NZUS93 KARX 251110
HRRWXR

CURRENT HOURLY OBSERVATIONS ACROSS
MUCH OF THE UPPER MISSISSIPPI VALLEY
NATIONAL WEATHER SERVICE LA CROSSE WI
500 AM CST TUE NOV 25 2014


...SOUTHEAST MINNESOTA...


CITY           SKY/WX    TMP DP  RH WIND       PRES   REMARKS
ROCHESTER      PTCLDY    10   7  87 NW10      29.98R WCI  -4
ROCHESTER/MAYO FAIR      12   8  83 W12       29.99R WCI  -2
WINONA         CLOUDY    21  14  73 NW10      30.00R WCI  10
AUSTIN         CLEAR     10   7  85 NW9       30.00R WCI  -2
ALBERT LEA     CLEAR     10   9  92 NW5       30.00R WCI   2
DODGE CENTER   PTCLDY    10   9  92 NW13      29.98R WCI  -5
PRESTON        FLURRIES  12   8  85 NW13G20   29.98R WCI  -3
OWATONNA       CLEAR     10   7  85 W9        30.01R WCI  -2
FARIBAULT      CLEAR     10   7  85 W6        30.01S WCI   1
$$

...ELSEWHERE IN MINNESOTA...


CITY           SKY/WX    TMP DP  RH WIND       PRES   REMARKS
MINNEAPOLIS    CLEAR     11   7  84 NW7       30.02R WCI   0
INTNL FALLS    CLEAR     -1  -5  82 SW6       29.92R WCI -13
DULUTH         FLURRIES  11   6  81 NW12G20   29.88R WCI  -3
RED WING       FLURRIES  18  10  73 W8        30.00R WCI   7
REDWOOD FALLS  PTCLDY    11   5  77 W6        30.03F WCI   1
MANKATO        CLEAR     10   3  72 NW13      30.02R WCI  -5
WORTHINGTON    CLEAR      9   3  78 W7        30.03S WCI  -3
FAIRMONT       CLEAR     12   5  73 W12       30.03S WCI  -2
$$

...SOUTHWEST WISCONSIN...


CITY           SKY/WX    TMP DP  RH WIND       PRES   REMARKS
LA CROSSE      CLOUDY    21  13  71 NW15      29.98R WCI   8
PRAIRIE DU CHI CLOUDY    19  12  74 W9        30.00R WCI   7
BOSCOBEL       PTCLDY    19  12  74 SW5       29.99R WCI  12
LONE ROCK      CLOUDY    23  15  71 W9        29.95R WCI  13
PLATTEVILLE    PTCLDY    15  12  87 W12       29.96R WCI   2
FORT MC COY    MOCLDY    19  13  77 W8        29.96R WCI   9
CAMP DOUGLAS   FOG       19  18  98 W10       29.92R VSB 1/4 WCI   7
VIROQUA        CLOUDY    19  17  90 NW8       29.92R WCI   9
WIS DELLS      CLOUDY    20  17  87 W8        29.90R WCI  10
$$

...ELSEWHERE IN WISCONSIN...


CITY           SKY/WX    TMP DP  RH WIND       PRES   REMARKS
MILWAUKEE      CLOUDY    24  19  81 W8        29.87R WCI  15
MADISON        CLOUDY    21  16  81 W8        29.90R WCI  11
GREEN BAY      LGT SNOW  24  21  88 W13       29.82R FOG     WCI  12
EAU CLAIRE     FLURRIES  17   9  70 NW10      29.96R WCI   5
BLACK RVR FLS  FLURRIES  20  14  75 W9        29.94R WCI  10
MEDFORD        FLURRIES  18  14  86 NW9       29.85R WCI   6
WAUSAU         CLOUDY    21  17  84 NW12      29.82R WCI   9
WIS RAPIDS     CLOUDY    21  14  74 W13       29.89R WCI   9
MARSHFIELD     CLOUDY    20  14  77 NW15      29.87R WCI   6
RICE LAKE      FLURRIES  16  10  77 NW8       29.97R WCI   5
$$

...NORTHEAST IOWA...


CITY           SKY/WX    TMP DP  RH WIND       PRES   REMARKS
DECORAH        CLOUDY    16  10  79 W7G15     29.98R WCI   6
MASON CITY     CLEAR     11   8  88 W10       30.04R WCI  -3
CHARLES CITY   PTCLDY    10   5  79 W6        30.03R WCI   1
OELWEIN        FLURRIES  14   9  79 NW16      30.03R WCI  -2
$$

...ELSEWHERE IN IOWA...


CITY           SKY/WX    TMP DP  RH WIND       PRES   REMARKS
DES MOINES     PTCLDY    19  13  77 NW9       30.10R WCI   8
IOWA CITY      NOT AVBL
FORT DODGE     CLEAR     16   9  73 W6        30.07S WCI   7
$$

...NORTHERN ILLINOIS...


CITY           SKY/WX    TMP DP  RH WIND       PRES   REMARKS
CHICAGO-OHARE  FLURRIES  21  16  81 W13       29.94R WCI   9
CHICAGO-MIDWAY FLURRIES  23  17  78 W13       29.96R WCI  11
MOLINE         CLOUDY    20  13  74 W15G23    30.04R WCI   6
ROCKFORD       CLOUDY    20  14  77 W12       29.97R WCI   8
PEORIA         CLOUDY    25  17  72 W12G24    30.04R WCI  14
$$

NOTE: "FAIR" INDICATES FEW OR NO CLOUDS BELOW 12,000 FEET WITH NO
SIGNIFICANT WEATHER AND/OR OBSTRUCTIONS TO VISIBILITY. WIND
SPEEDS ARE IN MILES-PER-HOUR.



USA.gov is the U.S. government's official web portal to all federal, state and local government web resources and services.